Tracking 33747 objects as of 12-Apr-2026
HD Live streaming from Space Station
objects crossing your sky now

STARLINK-36848

Track STARLINK-36848 now!
10-day predictions
STARLINK-36848 is classified as:


NORAD ID: 67936
Int'l Code: 2026-037E
Perigee: 486.8 km
Apogee: 488.5 km
Inclination: 43.0 °
Period: 94.2 minutes
Semi major axis: 6858 km
RCS: Unknown
Launch date: February 24, 2026
Source: United States (US)
Launch site: AIR FORCE EASTERN TEST RANGE (AFETR)
Your satellite tracking list
Your tracking list is empty




NASA's NSSDC Master Catalog

Two Line Element Set (TLE):
1 67936U 26037E   26101.42932817  .00009847  00000-0  35761-3 0  9998
2 67936  43.0001   6.2071 0001224 268.4095  91.6616 15.28422847  8347
Source of the keplerian elements: AFSPC